| time (UTC) | temp F | wind direction | speed knots | gust knots | rain 1hr in | rain 24hr in | rain mn in | humidity % | barometer mb |
| 20260504014503 | 53 | 234 | 5.2 | 14.8 | 0.00 | 0.00 | 0.00 | 55 | 1009.1 |
| 20260504014024 | 53 | 230 | 6.1 | 19.1 | 0.00 | 0.00 | 0.00 | 54 | 1009.2 |
| 20260504013524 | 54 | 228 | 7.0 | 19.1 | 0.00 | 0.00 | 0.00 | 53 | 1009.1 |
| 20260504013003 | 54 | 229 | 6.1 | 15.6 | 0.00 | 0.00 | 0.00 | 52 | 1009.1 |
| 20260504012503 | 54 | 231 | 6.1 | 15.6 | 0.00 | 0.00 | 0.00 | 52 | 1009.1 |
| 20260504012003 | 53 | 229 | 5.2 | 15.6 | 0.00 | 0.00 | 0.00 | 53 | 1009.2 |
| 20260504011524 | 53 | 229 | 5.2 | 15.6 | 0.00 | 0.00 | 0.00 | 55 | 1009.1 |
| 20260504011003 | 53 | 235 | 6.1 | 14.8 | 0.00 | 0.00 | 0.00 | 55 | 1009.2 |
| 20260504010503 | 52 | 235 | 7.0 | 13.0 | 0.00 | 0.00 | 0.00 | 55 | 1009.2 |
| 20260504010024 | 52 | 237 | 6.1 | 13.0 | 0.00 | 0.00 | 0.00 | 55 | 1009.2 |
| 20260504005503 | 52 | 235 | 5.2 | 13.0 | 0.00 | 0.00 | 0.00 | 57 | 1009.2 |
| 20260504005003 | 52 | 226 | 5.2 | 15.6 | 0.00 | 0.00 | 0.00 | 57 | 1009.1 |
| 20260504004503 | 52 | 232 | 5.2 | 15.6 | 0.00 | 0.00 | 0.00 | 57 | 1009.0 |
| 20260504004003 | 52 | 235 | 6.1 | 15.6 | 0.00 | 0.00 | 0.00 | 57 | 1009.0 |
| 20260504003503 | 52 | 226 | 6.1 | 15.6 | 0.00 | 0.00 | 0.00 | 58 | 1009.0 |
| 20260504003003 | 52 | 226 | 5.2 | 13.0 | 0.00 | 0.00 | 0.00 | 59 | 1009.0 |
| 20260504002503 | 52 | 237 | 5.2 | 11.3 | 0.00 | 0.00 | 0.00 | 60 | 1009.0 |
| 20260504002003 | 51 | 242 | 5.2 | 13.9 | 0.00 | 0.00 | 0.00 | 60 | 1009.1 |
| 20260504001503 | 51 | 231 | 4.3 | 13.9 | 0.00 | 0.00 | 0.00 | 62 | 1009.0 |
| 20260504001003 | 50 | 238 | 3.5 | 10.4 | 0.00 | 0.00 | 0.00 | 63 | 1009.1 |
| 20260504000524 | 50 | 248 | 3.5 | 10.4 | 0.00 | 0.00 | 0.00 | 63 | 1009.1 |
| 20260504000003 | 50 | 243 | 3.5 | 9.6 | 0.00 | 0.00 | 0.00 | 64 | 1009.2 |
| 20260503235503 | 50 | 244 | 3.5 | 9.6 | 0.00 | 0.00 | 0.00 | 64 | 1009.2 |
| 20260503235003 | 50 | 243 | 3.5 | 9.6 | 0.00 | 0.00 | 0.00 | 64 | 1009.2 |
| 20260503234503 | 50 | 243 | 3.5 | 9.6 | 0.00 | 0.00 | 0.00 | 63 | 1009.2 |
| 20260503234003 | 50 | 245 | 3.5 | 8.7 | 0.00 | 0.00 | 0.00 | 65 | 1009.3 |
| 20260503233503 | 50 | 249 | 3.5 | 7.8 | 0.00 | 0.00 | 0.00 | 66 | 1009.2 |
| 20260503233003 | 50 | 247 | 2.6 | 7.8 | 0.00 | 0.00 | 0.00 | 66 | 1009.2 |
| 20260503232503 | 50 | 244 | 3.5 | 8.7 | 0.00 | 0.00 | 0.00 | 66 | 1009.3 |
| 20260503232024 | 50 | 253 | 4.3 | 13.0 | 0.00 | 0.00 | 0.00 | 66 | 1009.3 |
| 20260503231503 | 50 | 251 | 6.1 | 13.0 | 0.00 | 0.00 | 0.00 | 66 | 1009.3 |
| 20260503231024 | 50 | 249 | 6.1 | 13.9 | 0.00 | 0.00 | 0.00 | 66 | 1009.4 |
| 20260503230524 | 50 | 253 | 6.1 | 13.9 | 0.00 | 0.00 | 0.00 | 65 | 1009.3 |
| 20260503230003 | 50 | 248 | 7.0 | 17.4 | 0.00 | 0.00 | 0.00 | 64 | 1009.5 |
| 20260503225503 | 50 | 240 | 6.1 | 17.4 | 0.00 | 0.00 | 0.00 | 64 | 1009.5 |
| 20260503225003 | 51 | 236 | 6.1 | 14.8 | 0.00 | 0.00 | 0.00 | 63 | 1009.5 |
| 20260503224524 | 51 | 241 | 5.2 | 14.8 | 0.00 | 0.00 | 0.00 | 62 | 1009.6 |
| 20260503224003 | 51 | 246 | 5.2 | 13.0 | 0.00 | 0.00 | 0.00 | 62 | 1009.7 |
| 20260503223503 | 51 | 249 | 4.3 | 13.0 | 0.00 | 0.00 | 0.00 | 62 | 1009.7 |
| 20260503223003 | 51 | 249 | 5.2 | 15.6 | 0.00 | 0.00 | 0.00 | 62 | 1009.6 |
| 20260503222503 | 51 | 247 | 5.2 | 15.6 | 0.00 | 0.00 | 0.00 | 62 | 1009.7 |
| 20260503222003 | 51 | 246 | 6.1 | 14.8 | 0.00 | 0.00 | 0.00 | 62 | 1009.8 |
| 20260503221503 | 51 | 236 | 6.1 | 15.6 | 0.00 | 0.00 | 0.00 | 61 | 1009.7 |
| 20260503221024 | 51 | 237 | 7.0 | 18.2 | 0.00 | 0.00 | 0.00 | 61 | 1009.7 |
| 20260503220503 | 51 | 249 | 7.0 | 20.0 | 0.00 | 0.00 | 0.00 | 61 | 1009.7 |
| 20260503220003 | 51 | 243 | 6.1 | 20.0 | 0.00 | 0.00 | 0.00 | 61 | 1009.7 |
| 20260503215503 | 51 | 236 | 7.0 | 20.0 | 0.00 | 0.00 | 0.00 | 61 | 1009.6 |
| 20260503215003 | 51 | 237 | 7.8 | 20.0 | 0.00 | 0.00 | 0.00 | 60 | 1009.8 |
| 20260503214503 | 52 | 236 | 8.7 | 19.1 | 0.00 | 0.00 | 0.00 | 60 | 1009.5 |
| 20260503214003 | 52 | 235 | 7.8 | 19.1 | 0.00 | 0.00 | 0.00 | 59 | 1009.4 |
| 20260503213503 | 52 | 236 | 7.0 | 18.2 | 0.00 | 0.00 | 0.00 | 59 | 1009.3 |
| 20260503213003 | 52 | 239 | 7.8 | 23.5 | 0.00 | 0.00 | 0.00 | 60 | 1009.3 |
| 20260503212503 | 52 | 231 | 7.0 | 23.5 | 0.00 | 0.00 | 0.00 | 59 | 1009.2 |
| 20260503212003 | 52 | 227 | 6.1 | 20.9 | 0.00 | 0.00 | 0.00 | 60 | 1009.3 |
| 20260503211503 | 51 | 242 | 7.0 | 20.9 | 0.00 | 0.00 | 0.00 | 60 | 1009.2 |
| 20260503211003 | 51 | 245 | 7.8 | 20.9 | 0.00 | 0.00 | 0.00 | 60 | 1009.3 |
| 20260503210503 | 51 | 236 | 7.0 | 17.4 | 0.00 | 0.00 | 0.00 | 60 | 1009.3 |
| 20260503210003 | 51 | 230 | 7.0 | 18.2 | 0.00 | 0.00 | 0.00 | 60 | 1009.4 |
| 20260503205503 | 51 | 231 | 7.0 | 18.2 | 0.00 | 0.00 | 0.00 | 60 | 1009.5 |
| 20260503205003 | 51 | 233 | 6.1 | 16.5 | 0.00 | 0.00 | 0.00 | 61 | 1009.6 |
| 20260503204503 | 51 | 230 | 7.0 | 16.5 | 0.00 | 0.00 | 0.00 | 60 | 1009.6 |
| 20260503204003 | 51 | 233 | 7.8 | 16.5 | 0.00 | 0.00 | 0.00 | 60 | 1009.6 |
| 20260503203503 | 51 | 231 | 7.8 | 16.5 | 0.00 | 0.00 | 0.00 | 59 | 1009.5 |
| 20260503203003 | 52 | 229 | 7.8 | 19.1 | 0.00 | 0.00 | 0.00 | 59 | 1009.8 |
| 20260503202503 | 52 | 234 | 8.7 | 26.1 | 0.00 | 0.00 | 0.00 | 58 | 1009.8 |
| 20260503202003 | 52 | 235 | 8.7 | 26.1 | 0.00 | 0.00 | 0.00 | 56 | 1009.8 |
| 20260503201503 | 52 | 232 | 8.7 | 20.9 | 0.00 | 0.00 | 0.00 | 56 | 1009.8 |
| 20260503201003 | 53 | 237 | 8.7 | 20.9 | 0.00 | 0.00 | 0.00 | 55 | 1009.8 |
| 20260503200524 | 53 | 239 | 7.8 | 20.9 | 0.00 | 0.00 | 0.00 | 54 | 1010.1 |
| 20260503200003 | 53 | 228 | 7.8 | 21.7 | 0.00 | 0.00 | 0.00 | 54 | 1010.1 |
| 20260503195503 | 53 | 227 | 8.7 | 21.7 | 0.00 | 0.00 | 0.00 | 53 | 1010.2 |
| 20260503195003 | 53 | 231 | 7.8 | 20.0 | 0.00 | 0.00 | 0.00 | 54 | 1010.1 |
| 20260503194503 | 53 | 239 | 7.8 | 19.1 | 0.00 | 0.00 | 0.00 | 54 | 1010.3 |
| 20260503194003 | 53 | 243 | 8.7 | 19.1 | 0.00 | 0.00 | 0.00 | 52 | 1010.3 |
| 20260503193503 | 52 | 245 | 9.6 | 20.0 | 0.00 | 0.00 | 0.00 | 52 | 1010.5 |
| 20260503193003 | 53 | 247 | 10.4 | 25.2 | 0.00 | 0.00 | 0.00 | 51 | 1010.5 |
| 20260503192524 | 53 | 235 | 9.6 | 25.2 | 0.00 | 0.00 | 0.00 | 52 | 1010.5 |
| 20260503192024 | 52 | 229 | 7.8 | 21.7 | 0.00 | 0.00 | 0.00 | 52 | 1010.6 |
| 20260503191503 | 52 | 240 | 7.8 | 17.4 | 0.00 | 0.00 | 0.00 | 52 | 1010.6 |
| 20260503191003 | 52 | 242 | 8.7 | 21.7 | 0.00 | 0.00 | 0.00 | 52 | 1010.7 |
| 20260503190503 | 52 | 241 | 8.7 | 21.7 | 0.00 | 0.00 | 0.00 | 53 | 1010.7 |
| 20260503190003 | 52 | 241 | 7.8 | 17.4 | 0.00 | 0.00 | 0.00 | 51 | 1010.9 |
| 20260503185503 | 53 | 237 | 7.8 | 17.4 | 0.00 | 0.00 | 0.00 | 49 | 1010.6 |
| 20260503185003 | 53 | 236 | 8.7 | 19.1 | 0.00 | 0.00 | 0.00 | 49 | 1010.9 |
| 20260503184503 | 52 | 236 | 9.6 | 19.1 | 0.00 | 0.00 | 0.00 | 47 | 1010.9 |
| 20260503184003 | 53 | 245 | 9.6 | 19.1 | 0.00 | 0.00 | 0.00 | 47 | 1011.0 |
| 20260503183503 | 53 | 250 | 9.6 | 20.0 | 0.00 | 0.00 | 0.00 | 44 | 1011.0 |
| 20260503183003 | 53 | 241 | 8.7 | 20.0 | 0.00 | 0.00 | 0.00 | 42 | 1011.1 |
| 20260503182503 | 53 | 235 | 7.8 | 18.2 | 0.00 | 0.00 | 0.00 | 43 | 1011.1 |
| 20260503182004 | 54 | 235 | 7.8 | 16.5 | 0.00 | 0.00 | 0.00 | 43 | 1011.2 |
| 20260503181504 | 53 | 231 | 8.7 | 19.1 | 0.00 | 0.00 | 0.00 | 42 | 1011.3 |
| 20260503181003 | 54 | 225 | 7.0 | 19.1 | 0.00 | 0.00 | 0.00 | 42 | 1011.3 |
| 20260503180503 | 54 | 226 | 6.1 | 15.6 | 0.00 | 0.00 | 0.00 | 43 | 1011.4 |
| 20260503180024 | 54 | 225 | 7.0 | 18.2 | 0.00 | 0.00 | 0.00 | 43 | 1011.5 |
| 20260503175524 | 54 | 229 | 7.0 | 18.2 | 0.00 | 0.00 | 0.00 | 42 | 1011.5 |
| 20260503175003 | 54 | 237 | 6.1 | 13.0 | 0.00 | 0.00 | 0.00 | 44 | 1011.5 |
| 20260503174503 | 53 | 231 | 7.0 | 20.0 | 0.00 | 0.00 | 0.00 | 43 | 1011.8 |
| 20260503174003 | 52 | 227 | 7.0 | 20.0 | 0.00 | 0.00 | 0.00 | 40 | 1011.8 |
| 20260503173524 | 52 | 225 | 5.2 | 13.9 | 0.00 | 0.00 | 0.00 | 43 | 1012.0 |
| 20260503173003 | 52 | 222 | 4.3 | 17.4 | 0.00 | 0.00 | 0.00 | 46 | 1012.0 |
| 20260503172504 | 51 | 228 | 5.2 | 17.4 | 0.00 | 0.00 | 0.00 | 51 | 1012.0 |
| 20260503172003 | 50 | 224 | 7.0 | 15.6 | 0.00 | 0.00 | 0.00 | 54 | 1012.1 |
| 20260503171503 | 50 | 223 | 6.1 | 15.6 | 0.00 | 0.00 | 0.00 | 54 | 1012.2 |
| 20260503171003 | 51 | 233 | 6.1 | 15.6 | 0.00 | 0.00 | 0.00 | 59 | 1012.3 |
| 20260503170503 | 50 | 227 | 6.1 | 13.0 | 0.00 | 0.00 | 0.00 | 59 | 1012.2 |
| 20260503151003 | 47 | 240 | 7.0 | 17.4 | 0.00 | 0.00 | 0.00 | 65 | 1013.6 |
| 20260503150503 | 47 | 231 | 7.0 | 17.4 | 0.00 | 0.00 | 0.00 | 65 | 1013.4 |
| 20260503131024 | 45 | 221 | 5.2 | 13.0 | 0.00 | 0.00 | 0.00 | 69 | 1013.5 |
| 20260503130503 | 45 | 230 | 5.2 | 12.2 | 0.00 | 0.00 | 0.00 | 69 | 1013.6 |
| 20260503110503 | 32 | 152 | 0.0 | 0.9 | 0.00 | 0.00 | 0.00 | 91 | 1013.7 |
| 20260503090503 | 30 | 0 | 0.0 | 0.0 | 0.00 | 0.00 | 0.00 | 88 | 1013.8 |
| 20260503081503 | 31 | 0 | 0.0 | 0.0 | 0.00 | 0.00 | 0.00 | 88 | 1013.9 |
| 20260503081003 | 31 | 0 | 0.0 | 0.0 | 0.00 | 0.00 | 0.00 | 88 | 1013.9 |
| 20260503080503 | 32 | 0 | 0.0 | 0.0 | 0.00 | 0.00 | 0.00 | 88 | 1013.9 |
| 20260503072524 | 33 | 0 | 0.0 | 0.0 | 0.00 | 0.00 | 0.00 | 88 | 1013.6 |
| 20260503072003 | 33 | 0 | 0.0 | 0.0 | 0.00 | 0.00 | 0.00 | 87 | 1013.6 |
| 20260503071503 | 34 | 0 | 0.0 | 0.0 | 0.00 | 0.00 | 0.00 | 88 | 1013.6 |
| 20260503071003 | 34 | 167 | 0.0 | 0.9 | 0.00 | 0.00 | 0.00 | 88 | 1013.7 |
| 20260503070503 | 34 | 167 | 0.0 | 0.9 | 0.00 | 0.00 | 0.00 | 88 | 1013.7 |
| 20260503055003 | 33 | 0 | 0.0 | 0.0 | 0.00 | 0.00 | 0.00 | 84 | 1014.1 |
| 20260503054503 | 33 | 0 | 0.0 | 0.0 | 0.00 | 0.00 | 0.00 | 84 | 1014.1 |
| 20260503054003 | 34 | 0 | 0.0 | 0.0 | 0.00 | 0.00 | 0.00 | 84 | 1014.1 |
| 20260503053503 | 34 | 0 | 0.0 | 0.0 | 0.00 | 0.00 | 0.00 | 84 | 1014.1 |
| 20260503053024 | 34 | 0 | 0.0 | 0.0 | 0.00 | 0.00 | 0.00 | 83 | 1014.2 |
| 20260503052503 | 34 | 0 | 0.0 | 0.0 | 0.00 | 0.00 | 0.00 | 83 | 1014.1 |
| 20260503052003 | 34 | 0 | 0.0 | 0.0 | 0.00 | 0.00 | 0.00 | 82 | 1014.2 |
| 20260503051503 | 34 | 0 | 0.0 | 0.0 | 0.00 | 0.00 | 0.00 | 82 | 1014.3 |
| 20260503051003 | 35 | 0 | 0.0 | 0.0 | 0.00 | 0.00 | 0.00 | 82 | 1014.4 |
| 20260503050503 | 35 | 0 | 0.0 | 0.0 | 0.00 | 0.00 | 0.00 | 81 | 1014.3 |
| 20260503050003 | 35 | 0 | 0.0 | 0.0 | 0.00 | 0.00 | 0.00 | 81 | 1014.3 |
| 20260503045503 | 36 | 0 | 0.0 | 0.0 | 0.00 | 0.00 | 0.00 | 80 | 1014.4 |
| 20260503045024 | 36 | 0 | 0.0 | 0.0 | 0.00 | 0.00 | 0.00 | 80 | 1014.5 |
| 20260503044503 | 36 | 0 | 0.0 | 0.0 | 0.00 | 0.00 | 0.00 | 80 | 1014.4 |
| 20260503044003 | 36 | 0 | 0.0 | 0.0 | 0.00 | 0.00 | 0.00 | 79 | 1014.5 |
| 20260503043503 | 37 | 0 | 0.0 | 0.0 | 0.00 | 0.00 | 0.00 | 79 | 1014.5 |
| 20260503043003 | 37 | 167 | 0.0 | 0.9 | 0.00 | 0.00 | 0.00 | 79 | 1014.5 |
| 20260503042524 | 37 | 167 | 0.0 | 0.9 | 0.00 | 0.00 | 0.00 | 79 | 1014.6 |
| 20260503042024 | 38 | 167 | 0.0 | 2.6 | 0.00 | 0.00 | 0.00 | 78 | 1014.6 |
| 20260503041524 | 38 | 167 | 0.9 | 3.5 | 0.00 | 0.00 | 0.00 | 78 | 1014.6 |
| 20260503041003 | 38 | 167 | 0.9 | 3.5 | 0.00 | 0.00 | 0.00 | 78 | 1014.7 |
| 20260503040503 | 38 | 166 | 0.9 | 3.5 | 0.00 | 0.00 | 0.00 | 77 | 1014.7 |
| 20260503040003 | 39 | 166 | 0.9 | 3.5 | 0.00 | 0.00 | 0.00 | 77 | 1014.7 |
| 20260503035524 | 39 | 166 | 0.9 | 3.5 | 0.00 | 0.00 | 0.00 | 76 | 1014.7 |
| 20260503035003 | 39 | 166 | 0.9 | 3.5 | 0.00 | 0.00 | 0.00 | 76 | 1014.8 |
| 20260503034503 | 39 | 167 | 1.7 | 3.5 | 0.00 | 0.00 | 0.00 | 75 | 1014.8 |
| 20260503034024 | 39 | 167 | 0.9 | 3.5 | 0.00 | 0.00 | 0.00 | 75 | 1014.8 |
| 20260503033524 | 39 | 168 | 0.0 | 1.7 | 0.00 | 0.00 | 0.00 | 75 | 1014.8 |
| 20260503033003 | 39 | 168 | 0.9 | 5.2 | 0.00 | 0.00 | 0.00 | 74 | 1014.7 |
| 20260503032503 | 40 | 167 | 1.7 | 5.2 | 0.00 | 0.00 | 0.00 | 74 | 1014.8 |
| 20260503032024 | 40 | 171 | 1.7 | 4.3 | 0.00 | 0.00 | 0.00 | 73 | 1014.8 |
| 20260503031524 | 40 | 179 | 1.7 | 4.3 | 0.00 | 0.00 | 0.00 | 73 | 1014.9 |
| 20260503031003 | 40 | 183 | 1.7 | 4.3 | 0.00 | 0.00 | 0.00 | 72 | 1014.8 |
| 20260503030503 | 40 | 182 | 1.7 | 4.3 | 0.00 | 0.00 | 0.00 | 71 | 1014.7 |
| 20260503030003 | 41 | 192 | 0.9 | 3.5 | 0.00 | 0.00 | 0.00 | 70 | 1014.8 |
| 20260503025503 | 41 | 205 | 0.9 | 2.6 | 0.00 | 0.00 | 0.00 | 70 | 1014.8 |
| 20260503025003 | 41 | 211 | 0.9 | 1.7 | 0.00 | 0.00 | 0.00 | 70 | 1014.8 |
| 20260503024524 | 41 | 211 | 0.0 | 1.7 | 0.00 | 0.00 | 0.00 | 70 | 1014.8 |
| 20260503024003 | 41 | 211 | 0.0 | 0.9 | 0.00 | 0.00 | 0.00 | 70 | 1014.9 |
| 20260503023503 | 41 | 211 | 0.0 | 1.7 | 0.00 | 0.00 | 0.00 | 70 | 1014.9 |
| 20260503023003 | 41 | 211 | 0.9 | 1.7 | 0.00 | 0.00 | 0.00 | 70 | 1014.9 |
| 20260503022503 | 41 | 211 | 0.9 | 1.7 | 0.00 | 0.00 | 0.00 | 69 | 1014.9 |
| 20260503022003 | 41 | 211 | 0.9 | 2.6 | 0.00 | 0.00 | 0.00 | 69 | 1015.1 |
| 20260503021503 | 41 | 211 | 0.9 | 2.6 | 0.00 | 0.00 | 0.00 | 69 | 1015.0 |
| 20260503021003 | 41 | 211 | 0.9 | 2.6 | 0.00 | 0.00 | 0.00 | 69 | 1015.0 |
| 20260503020503 | 41 | 210 | 0.9 | 3.5 | 0.00 | 0.00 | 0.00 | 70 | 1015.2 |
| 20260503020003 | 41 | 207 | 0.9 | 3.5 | 0.00 | 0.00 | 0.00 | 70 | 1015.2 |
| 20260503015524 | 41 | 205 | 0.0 | 2.6 | 0.00 | 0.00 | 0.00 | 71 | 1015.3 |
| 20260503015003 | 41 | 205 | 0.9 | 2.6 | 0.00 | 0.00 | 0.00 | 71 | 1015.3 |